Weather History for Kirksville, MO

Change the Weather History Date:

Friday, February 21, 2014

  Actual Average Record
Temperature  
Mean Temperature 38 °F 31 °F  
Max Temperature 50 °F 41 °F 69 °F (1922)
Min Temperature 26 °F 22 °F -4 °F (1918)
Degree Days  
Heating Degree Days 27 34  
Month to date heating degree days 988 761  
Since 1 July heating degree days 4674 4308  
Cooling Degree Days 0 0  
Month to date cooling degree days 0 0  
Year to date cooling degree days 0 0  
Moisture  
Dew Point 20 °F    
Average Humidity 55    
Maximum Humidity 78    
Minimum Humidity 32    
Precipitation  
Precipitation 0.00 in 0.05 in 0.80 in (1937)
Month to date precipitation 2.69 1.13  
Year to date precipitation 3.55 2.40  
Sea Level Pressure  
Sea Level Pressure 29.84 in    
Wind  
Wind Speed 13 mph (West)    
Max Wind Speed 26 mph    
Max Gust Speed 35 mph    
Visibility 10 miles    
Events      
T = Trace of Precipitation, MM = Missing Value Source: NWS Daily Summary

Daily Weather History Graph

Daily Weather History Graph

Search for Another Location

Airport:

Trip Planner

Search our weather history database for the weather conditions in past years. The results will help you decide how hot, cold, wet, or windy it might be!

Date:

Astronomy

Feb. 21, 2014 Rise Set
Actual Time 6:55 AM CST 5:53 PM CST
Civil Twilight 6:27 AM CST 6:20 PM CST
Nautical Twilight 5:56 AM CST 6:52 PM CST
Astronomical Twilight 5:24 AM CST 7:23 PM CST
Moon No Moon Rise 10:19 AM CST
Length of Visible Light 11h 52m
Length of Day
10h 57m
Waning Gibbous, 60% of the Moon is Illuminated
Feb 21
Waning Gibbous
Feb 22
Last Quarter
Mar 1
New
Mar 8
First Quarter
Mar 16
Full

Hourly Weather History & Observations

Time (CST) Temp. Windchill Dew Point Humidity Pressure Visibility Wind Dir Wind Speed Gust Speed Precip Events Conditions
12:55 AM 30.9 °F 17.5 °F 21.9 °F 69% 29.68 in 10.0 mi West 24.2 mph 32.2 mph N/A   Overcast
1:35 AM 30.0 °F 17.9 °F 21.0 °F 69% 29.67 in 10.0 mi West 18.4 mph 32.2 mph N/A   Overcast
1:55 AM 30.0 °F 17.5 °F 21.0 °F 69% 29.71 in 10.0 mi West 19.6 mph 29.9 mph N/A   Overcast
2:55 AM 30.0 °F 17.5 °F 18.0 °F 61% 29.75 in 10.0 mi West 19.6 mph 34.5 mph N/A   Overcast
3:55 AM 28.0 °F 15.3 °F 17.1 °F 63% 29.77 in 10.0 mi West 18.4 mph 32.2 mph N/A   Partly Cloudy
4:55 AM 27.0 °F 13.2 °F 16.0 °F 63% 29.81 in 10.0 mi West 20.7 mph 29.9 mph N/A   Clear
5:55 AM 26.1 °F 15.0 °F 16.0 °F 66% 29.83 in 10.0 mi West 12.7 mph 23.0 mph N/A   Clear
6:55 AM 26.1 °F 14.0 °F 15.1 °F 63% 29.86 in 10.0 mi West 15.0 mph 21.9 mph N/A   Clear
7:55 AM 28.0 °F 18.1 °F 15.1 °F 58% 29.88 in 10.0 mi West 11.5 mph 24.2 mph N/A   Clear
8:55 AM 32.0 °F 22.1 °F 16.0 °F 52% 29.90 in 10.0 mi West 13.8 mph 25.3 mph N/A   Clear
9:55 AM 34.0 °F 25.0 °F 17.1 °F 50% 29.89 in 10.0 mi WSW 12.7 mph 21.9 mph N/A   Clear
10:55 AM 37.0 °F 28.5 °F 18.0 °F 46% 29.89 in 10.0 mi West 13.8 mph 21.9 mph N/A   Clear
11:55 AM 41.0 °F 33.9 °F 21.0 °F 45% 29.88 in 10.0 mi SW 12.7 mph 20.7 mph N/A   Clear
12:55 PM 43.0 °F 36.4 °F 21.0 °F 42% 29.85 in 10.0 mi WSW 12.7 mph 19.6 mph N/A   Clear
1:55 PM 46.9 °F - 21.9 °F 37% 29.82 in 10.0 mi SW 16.1 mph 23.0 mph N/A   Clear
2:55 PM 48.0 °F - 23.0 °F 37% 29.80 in 10.0 mi SW 15.0 mph 20.7 mph N/A   Clear
3:55 PM 50.0 °F - 21.9 °F 33% 29.81 in 10.0 mi WSW 15.0 mph 23.0 mph N/A   Clear
4:55 PM 48.9 °F - 21.9 °F 35% 29.82 in 10.0 mi WSW 13.8 mph 25.3 mph N/A   Clear
5:55 PM 46.0 °F 40.2 °F 24.1 °F 42% 29.86 in 10.0 mi West 12.7 mph 20.7 mph N/A   Clear
6:55 PM 39.9 °F 35.1 °F 25.0 °F 55% 29.89 in 10.0 mi WNW 6.9 mph - N/A   Clear
7:55 PM 37.9 °F 34.4 °F 24.1 °F 57% 29.90 in 10.0 mi NW 4.6 mph - N/A   Partly Cloudy
8:55 PM 34.0 °F 29.8 °F 24.1 °F 67% 29.91 in 10.0 mi West 4.6 mph - N/A   Partly Cloudy
9:55 PM 30.0 °F 26.5 °F 24.1 °F 79% 29.92 in 10.0 mi West 3.5 mph - N/A   Clear
10:55 PM 30.0 °F 25.2 °F 23.0 °F 75% 29.92 in 10.0 mi SW 4.6 mph - N/A   Clear
11:55 PM 34.0 °F 28.8 °F 24.1 °F 67% 29.94 in 10.0 mi SW 5.8 mph - N/A   Clear